Weather History for Roseau, MN

Change the Weather History Date:

Tuesday, January 29, 2013

  Actual Average Record
Temperature  
Mean Temperature 16 °F -  
Max Temperature 24 °F 10 °F 39 °F (1992)
Min Temperature 8 °F -9 °F -37 °F (1957)
Degree Days  
Heating Degree Days 49    
Moisture  
Dew Point 14 °F    
Average Humidity 80    
Maximum Humidity 86    
Minimum Humidity 73    
Precipitation  
Precipitation 0.00 in - - ()
Sea Level Pressure  
Sea Level Pressure 29.75 in    
Wind  
Wind Speed 8 mph (NW)    
Max Wind Speed 21 mph    
Max Gust Speed 25 mph    
Visibility 7 miles    
Events Snow    
Averages and records for this station are not official NWS values.
T = Trace of Precipitation, MM = Missing Value Source: NWS Daily Summary

Daily Weather History Graph

Daily Weather History Graph

Search for Another Location

Airport:

Trip Planner

Search our weather history database for the weather conditions in past years. The results will help you decide how hot, cold, wet, or windy it might be!

Date:

Astronomy

Jan. 29, 2013 Rise Set
Actual Time 7:56 AM CST 5:16 PM CST
Civil Twilight 7:22 AM CST 5:50 PM CST
Nautical Twilight 6:44 AM CST 6:28 PM CST
Astronomical Twilight 6:07 AM CST 7:05 PM CST
Moon 8:33 PM CST (1/29) 8:36 AM CST (1/29)
Length of Visible Light 10h 28m
Length of Day
9h 19m
Waning Gibbous, 93% of the Moon is Illuminated
Jan 29
Waning Gibbous
Feb 3
Last Quarter
Feb 10
New
Feb 17
First Quarter
Feb 25
Full

Hourly Weather History & Observations

Time (CST) Temp. Windchill Dew Point Humidity Pressure Visibility Wind Dir Wind Speed Gust Speed Precip Events Conditions
12:14 AM 21.2 °F 16.4 °F 17.6 °F 86% 29.70 in 5.0 mi NW 3.5 mph - N/A   Haze
12:34 AM 21.2 °F 16.4 °F 17.6 °F 86% 29.71 in 5.0 mi NW 3.5 mph - N/A   Overcast
12:54 AM 21.2 °F 16.4 °F 17.6 °F 86% 29.71 in 5.0 mi WNW 3.5 mph - N/A   Overcast
1:15 AM 21.2 °F 14.9 °F 17.6 °F 86% 29.70 in 5.0 mi WNW 4.6 mph - N/A   Mostly Cloudy
1:34 AM 21.2 °F 16.4 °F 17.6 °F 86% 29.68 in 5.0 mi NW 3.5 mph - N/A   Overcast
1:54 AM 21.2 °F 14.9 °F 17.6 °F 86% 29.68 in 5.0 mi NW 4.6 mph - N/A   Overcast
2:15 AM 21.2 °F 14.9 °F 17.6 °F 86% 29.67 in 5.0 mi NW 4.6 mph - N/A   Overcast
2:34 AM 21.2 °F 16.4 °F 17.6 °F 86% 29.67 in 5.0 mi NNW 3.5 mph - N/A   Mostly Cloudy
2:54 AM 21.2 °F 14.9 °F 17.6 °F 86% 29.67 in 5.0 mi NW 4.6 mph - N/A   Overcast
3:14 AM 21.2 °F 16.4 °F 17.6 °F 86% 29.66 in 5.0 mi NNW 3.5 mph - N/A   Overcast
3:34 AM 23.0 °F 17.0 °F 17.6 °F 80% 29.66 in 5.0 mi NW 4.6 mph - N/A   Haze
3:55 AM 23.0 °F 18.4 °F 17.6 °F 80% 29.66 in 7.0 mi NNW 3.5 mph - N/A   Overcast
4:14 AM 23.0 °F 18.4 °F 17.6 °F 80% 29.66 in 7.0 mi NNW 3.5 mph - N/A   Overcast
4:34 AM 21.2 °F 16.4 °F 17.6 °F 86% 29.66 in 7.0 mi NW 3.5 mph - N/A   Overcast
4:54 AM 23.0 °F 15.8 °F 17.6 °F 80% 29.66 in 5.0 mi NW 5.8 mph - N/A   Haze
5:14 AM 23.0 °F 15.8 °F 17.6 °F 80% 29.66 in 5.0 mi NW 5.8 mph - N/A   Haze
5:34 AM 21.2 °F 13.6 °F 17.6 °F 86% 29.67 in 5.0 mi NW 5.8 mph - N/A   Scattered Clouds
5:54 AM 21.2 °F 14.9 °F 17.6 °F 86% 29.66 in 5.0 mi NNW 4.6 mph - N/A   Clear
6:14 AM 21.2 °F 11.7 °F 17.6 °F 86% 29.66 in 7.0 mi NNW 8.1 mph - N/A   Clear
6:34 AM 21.2 °F 13.6 °F 17.6 °F 86% 29.66 in 7.0 mi North 5.8 mph - N/A   Clear
6:54 AM 21.2 °F 13.6 °F 17.6 °F 86% 29.66 in 7.0 mi NNW 5.8 mph - N/A   Clear
7:15 AM 21.2 °F 12.6 °F 17.6 °F 86% 29.66 in 7.0 mi NNW 6.9 mph - N/A   Clear
7:34 AM 21.2 °F 12.6 °F 17.6 °F 86% 29.66 in 7.0 mi NW 6.9 mph - N/A   Scattered Clouds
7:54 AM 21.2 °F 12.6 °F 17.6 °F 86% 29.67 in 5.0 mi NW 6.9 mph - N/A   Haze
8:15 AM 21.2 °F 13.6 °F 17.6 °F 86% 29.68 in 4.0 mi NW 5.8 mph - N/A   Haze
8:34 AM 21.2 °F 13.6 °F 17.6 °F 86% 29.69 in 3.0 mi WNW 5.8 mph - N/A   Mist
8:54 AM 21.2 °F 13.6 °F 17.6 °F 86% 29.69 in 3.0 mi NW 5.8 mph - N/A   Mist
9:14 AM 23.0 °F 13.9 °F 17.6 °F 80% 29.69 in 3.0 mi NW 8.1 mph - N/A   Haze
9:34 AM 23.0 °F 13.9 °F 17.6 °F 80% 29.70 in 3.0 mi NW 8.1 mph - N/A   Haze
9:54 AM 23.0 °F 13.9 °F 17.6 °F 80% 29.71 in 3.0 mi NW 8.1 mph - N/A   Haze
10:14 AM 23.0 °F 13.9 °F 17.6 °F 80% 29.71 in 4.0 mi NNW 8.1 mph - N/A   Haze
10:34 AM 23.0 °F 13.1 °F 17.6 °F 80% 29.71 in 4.0 mi NNW 9.2 mph - N/A   Haze
10:54 AM 23.0 °F 11.1 °F 17.6 °F 80% 29.72 in 5.0 mi NNW 12.7 mph - N/A   Haze
11:14 AM 23.0 °F 11.7 °F 17.6 °F 80% 29.73 in 5.0 mi NNW 11.5 mph - N/A   Haze
11:34 AM 23.0 °F 12.4 °F 17.6 °F 80% 29.73 in 5.0 mi NNW 10.4 mph - N/A   Haze
11:54 AM 23.0 °F 11.7 °F 17.6 °F 80% 29.74 in 5.0 mi NW 11.5 mph - N/A   Haze
12:14 PM 21.2 °F 8.3 °F 17.6 °F 86% 29.74 in 7.0 mi NW 13.8 mph - N/A   Scattered Clouds
12:34 PM 21.2 °F 9.5 °F 17.6 °F 86% 29.73 in 10.0 mi NW 11.5 mph - N/A   Scattered Clouds
12:55 PM 23.0 °F 10.6 °F 17.6 °F 80% 29.73 in 10.0 mi NW 13.8 mph - N/A   Scattered Clouds
1:14 PM 24.8 °F 13.4 °F 17.6 °F 74% 29.73 in 10.0 mi NW 12.7 mph 16.1 mph N/A   Mostly Cloudy
1:34 PM 24.8 °F 14.0 °F 17.6 °F 74% 29.73 in 10.0 mi NW 11.5 mph - N/A   Overcast
1:54 PM 24.8 °F 14.6 °F 17.6 °F 74% 29.74 in 10.0 mi WNW 10.4 mph - N/A   Overcast
2:14 PM 24.8 °F 14.6 °F 17.6 °F 74% 29.74 in 10.0 mi WNW 10.4 mph - N/A   Overcast
2:34 PM 23.0 °F 11.1 °F 15.8 °F 74% 29.74 in 10.0 mi NW 12.7 mph - N/A   Overcast
2:55 PM 23.0 °F 12.4 °F 15.8 °F 74% 29.75 in 10.0 mi WNW 10.4 mph - N/A   Overcast
3:14 PM 21.2 °F 8.9 °F 15.8 °F 80% 29.75 in 10.0 mi NW 12.7 mph - N/A   Overcast
3:55 PM 19.4 °F 5.0 °F 12.2 °F 74% 29.77 in 10.0 mi NW 16.1 mph - N/A   Overcast
4:14 PM 19.4 °F 5.5 °F 12.2 °F 74% 29.78 in 10.0 mi NW 15.0 mph - N/A   Overcast
4:34 PM 19.4 °F 7.2 °F 12.2 °F 74% 29.79 in 10.0 mi NW 11.5 mph - N/A   Overcast
4:55 PM 19.4 °F 8.6 °F 12.2 °F 74% 29.80 in 10.0 mi NW 9.2 mph - N/A   Overcast
5:14 PM 19.4 °F 8.6 °F 12.2 °F 74% 29.81 in 10.0 mi NW 9.2 mph - N/A   Overcast
5:34 PM 17.6 °F 4.3 °F 10.4 °F 73% 29.82 in 10.0 mi NW 12.7 mph - N/A   Overcast
5:55 PM 17.6 °F 4.3 °F 10.4 °F 73% 29.83 in 10.0 mi NW 12.7 mph - N/A   Overcast
6:14 PM 17.6 °F 2.7 °F 10.4 °F 73% 29.83 in 10.0 mi NNW 16.1 mph - N/A   Overcast
6:34 PM 15.8 °F 0.3 °F 8.6 °F 73% 29.83 in 10.0 mi NW 16.1 mph - N/A   Overcast
6:55 PM 15.8 °F -0.2 °F 8.6 °F 73% 29.84 in 10.0 mi NW 17.3 mph - N/A   Overcast
7:14 PM 14.0 °F -3.4 °F 6.8 °F 73% 29.84 in 10.0 mi NW 19.6 mph 23.0 mph N/A   Overcast
7:34 PM 14.0 °F -2.0 °F 6.8 °F 73% 29.84 in 10.0 mi NW 16.1 mph - N/A   Overcast
7:55 PM 12.2 °F -3.7 °F 6.8 °F 79% 29.85 in 10.0 mi NNW 15.0 mph - N/A Snow Light Snow
8:14 PM 12.2 °F -2.5 °F 6.8 °F 79% 29.87 in 10.0 mi NW 12.7 mph - N/A   Overcast
8:34 PM 12.2 °F -3.7 °F 6.8 °F 79% 29.88 in 10.0 mi NNW 15.0 mph - N/A   Overcast
8:55 PM 12.2 °F -2.5 °F 6.8 °F 79% 29.89 in 10.0 mi NW 12.7 mph - N/A   Overcast
9:14 PM 12.2 °F -1.0 °F 6.8 °F 79% 29.90 in 10.0 mi NW 10.4 mph - N/A   Overcast
9:34 PM 12.2 °F -3.7 °F 6.8 °F 79% 29.90 in 10.0 mi NW 15.0 mph - N/A Snow Light Snow
9:54 PM 12.2 °F -4.3 °F 5.0 °F 73% 29.89 in 7.0 mi NW 16.1 mph - N/A Snow Light Snow
10:14 PM 10.4 °F -8.6 °F 3.2 °F 73% 29.88 in 5.0 mi NW 20.7 mph 25.3 mph N/A Snow Light Snow
10:34 PM 10.4 °F -7.7 °F 3.2 °F 73% 29.88 in 10.0 mi NW 18.4 mph - N/A   Overcast
10:55 PM 10.4 °F -8.2 °F 3.2 °F 73% 29.87 in 7.0 mi NW 19.6 mph - N/A Snow Light Snow
11:14 PM 8.6 °F -10.0 °F 3.2 °F 79% 29.87 in 7.0 mi NW 18.4 mph - N/A Snow Light Snow
11:34 PM 8.6 °F -8.9 °F 1.4 °F 73% 29.87 in 7.0 mi NW 16.1 mph - N/A Snow Light Snow
11:54 PM 8.6 °F -8.3 °F 1.4 °F 73% 29.89 in 7.0 mi NNW 15.0 mph - N/A Snow Light Snow